Regional Weather Roundup
Issued by NWS Boston, MA

Current Version | Previous Version | Text Only | Print | Product List | Glossary Off
Versions: 1 2 3 4 5 6 7 8 9 10 11 12 13 14 15 16 17 18 19 20 21 22 23 24 25 26 27

000
ASUS41 KBOX 101110
RWRBOX

REGIONAL WEATHER ROUNDUP
NATIONAL WEATHER SERVICE TAUNTON MA
600 AM EST SUN DEC 10 2017

NOTE:  "FAIR" INDICATES FEW OR NO CLOUDS BELOW 12,000 FEET WITH NO
SIGNIFICANT WEATHER AND/OR OBSTRUCTIONS TO VISIBILITY.

MAZALL-101200-
EASTERN MASSACHUSETTS

CITY           SKY/WX    TMP DP  RH WIND       PRES   REMARKS
BOSTON         CLOUDY    32  28  85 W10       29.67R WCI  24
BEVERLY        CLOUDY    30  29  96 W6        29.65R WCI  24
LAWRENCE       CLOUDY    32  28  85 W8        29.67R WCI  25
BEDFORD        CLOUDY    29  27  92 W7        29.66R WCI  22
BLUE HILL        N/A     29  26  89 W12       29.64R WCI  19
NORWOOD        CLOUDY    32  29  88 W7        29.68R WCI  26
MARSHFIELD     CLOUDY    32  30  93 W3        29.67R
PLYMOUTH       FLURRIES  32  29  88 W6        29.67R WCI  26
TAUNTON        CLOUDY    31  29  92 W5        29.68R WCI  26
NEW BEDFORD    CLOUDY    31  31 100 W6        29.68R WCI  25
$$

MAZALL-101200-
CAPE COD AND THE ISLANDS

CITY           SKY/WX    TMP DP  RH WIND       PRES   REMARKS
FALMOUTH       NOT AVBL
HYANNIS        FLURRIES  33  32  96 W5        29.66R WCI  29
CHATHAM        CLOUDY    37  36  96 VRB5      29.65R
PROVINCETOWN   LGT RAIN  36  32  85 NW12      29.66R WCI  28
NANTUCKET      CLOUDY    36  35  96 NW10      29.67R WCI  28
MARTHAS VNYRD  FLURRIES N/A N/A N/A NW8       29.68R
$$

MAZALL-101200-
CENTRAL AND WESTERN MASSACHUSETTS

CITY           SKY/WX    TMP DP  RH WIND       PRES   REMARKS
WORCESTER      MOCLDY    26  22  84 W14       29.64R WCI  14
FITCHBURG      PTCLDY    31  26  82 NW9       29.66R WCI  23
ORANGE         CLEAR     23  22  96 CALM      29.68R
SPRINGFIELD    PTCLDY    28  22  77 CALM      29.70R
WESTFIELD      FLURRIES  27  22  81 MISG      29.71R
NORTH ADAMS    PTCLDY    25  20  81 W12       29.71R WCI  14
PITTSFIELD     PTCLDY    23  19  85 W5        29.67R WCI  17
$$

RIZALL-101200-
RHODE ISLAND

CITY           SKY/WX    TMP DP  RH WIND       PRES   REMARKS
PROVIDENCE     CLOUDY    32  30  92 W5        29.70R WCI  27
NEWPORT        CLOUDY    33  30  88 NW8       29.70R WCI  26
SMITHFIELD     CLOUDY    28  27  93 W9        29.69R WCI  20
WESTERLY       CLOUDY    32  30  92 NW3       29.73R
$$

CTZALL-101200-
CONNECTICUT

CITY           SKY/WX    TMP DP  RH WIND       PRES   REMARKS
BRADLEY INTL   MOCLDY    28  23  81 CALM      29.73R
HARTFORD       MIX PCPN  29  23  78 W5        29.75R WCI  24
BRIDGEPORT     MOCLDY    30  26  85 NW7       29.77R WCI  23
DANBURY        PTCLDY    28  24  85 W3        29.77R
GROTON         PTCLDY    32  27  81 NW10      29.73R WCI  24
NEW HAVEN      MOCLDY    31  26  82 NW7       29.77R WCI  24
CHESTER        CLOUDY    30  27  86 NW6G14    29.73R WCI  24
MERIDEN        CLEAR     29  24  82 W7        29.76R WCI  22
WILLIMANTIC    CLOUDY    30  27  88 W3        29.72R
OXFORD         MOCLDY    26  24  92 W7        29.73R WCI  18
$$

MEZ002-015-021-024-NHZ003-005-008-011-012-014-VTZ005-008-101200-
NORTHERN NEW ENGLAND

CITY           SKY/WX    TMP DP  RH WIND       PRES   REMARKS
PORTLAND ME    MOCLDY    29  27  92 SW10      29.61R WCI  20
BANGOR ME      LGT SNOW  29  27  92 NW7       29.54R FOG     WCI  22
CONCORD NH     CLOUDY    27  23  85 W6        29.65R WCI  20
MANCHESTER NH  MOCLDY    30  26  85 CALM      29.64R
NASHUA NH      CLOUDY    28  25  88 CALM      29.66R
PORTSMOUTH NH  CLOUDY    30  27  88 W8        29.62R WCI  23
JAFFREY NH     PTCLDY    26  24  92 CALM      29.64R
KEENE NH       CLOUDY    26  25  96 S3        29.69R
BURLINGTON VT  LGT SNOW  29  26  89 S3        29.68R FOG
MT. WASHINGTON SNOWSHWR   7   7 100 NW43        N/A  VSB 0   WCI -20
$$

NYZ052-076-101200-
EASTERN NEW YORK

CITY           SKY/WX    TMP DP  RH WIND       PRES   REMARKS
ALBANY         MOCLDY    25  19  78 CALM      29.75R
NEW YORK CITY  MOCLDY    32  22  66 NW16G23   29.81R WCI  21
$$

ANZALL-101200-
MARINE OBSERVATIONS

STATION/POSITION TIME  TEMP    WIND        PRES    VSBY  WAVE
                       AIR SEA DIR/SP/G                  HT/PER
                 (UTC) (F)     (DEG/KT/KT) (MB)    (MI)  (FT/S)
BOSTON BUOY      1050   35 48  290/ 16/ 19 1002.9R         7/ 8
BUZZARDS BAY     1000   34     330/ 14/ 16 1004.9R
NANTUCKET SOUND  1050   35 45  310/ 12/ 16 1004.2R         3/ 4
MASS BAY-STELLWA 1004   33 47  310/ 14/ 17 1002.8R         8/ 8
ISLE OF SHOALS   1000   32     280/ 13/ 14 1002.8R
S OF BLOCK IS    1043      54                N/A           7/11
$$

......................KEY.........................
  SKY/WX - SKY CONDITION/PRESENT WEATHER
  TMP    - TEMPERATURE IN FAHRENHEIT
  DWPT   - DEWPOINT IN FAHRENHEIT
  RH     - RELATIVE HUMIDITY IN PERCENT
  WIND   - DIRECTION AND SPEED IN MPH
  PRES   - MEAN SEA LEVEL PRESSURE IN INCHES OF HG
  WCI    - WIND CHILL INDEX
  VSB    - VISIBILITY IN MILES
  HX     - HEAT INDEX
  TC     - TEMPERATURE IN CELSIUS
  VRB    - VARIABLE WIND DIRECTION
  N/A    - NOT AVAILABLE




USA.gov is the U.S. government's official web portal to all federal, state and local government web resources and services.